sat.trackr.live / text

‹ back to catalog

STARLINK-5911

NORAD 55950 · 2023-037AN

PAYLOAD ACTIVE UNKNOWN

§ Identity

Operator
Country
US
Launch date
2023-03-17
Launch site
AFWTR
Launch vehicle
Mass (kg)
RCS (m²)

Purposes: comms

External: N2YO · Heavens-Above · Gunter

§ Orbital elements

Epoch: 2026-09-20T21:55:27.545664Z

Period
96.11 min
Inclination
69.9983°
Eccentricity
0.0002569
Mean motion
14.98330752 rev/d
Perigee alt
570.3 km
Apogee alt
573.8 km
Semi-major
6,950.2 km
B*
4.0624e-5
RAAN
132.3165°
Arg perigee
263.9561°
Mean anomaly
96.1305°
Rev number
19,371

§ Raw data

STARLINK-59111 55950U 23037AN  26263.91351326  .00000392  00000+0  40624-4 0  99912 55950  69.9983 132.3165 0002569 263.9561  96.1305 14.98330752193712

JSON: /api/v1/satellites/55950 · /tle

For live sub-satellite position, see the globe view (requires WebGL).

§ Visibility from observer

Set your observer location to see the next 7 days of passes ≥ 10°. The values pass through the URL so the page stays shareable.

No JS? Fill the form by hand. The geolocation button needs JavaScript.